FW0069 Weather Reports


time (UTC)temp
C
wind
direction
speed
KPH
gust
KPH
rain 1hr
cm
rain 24hr
cm
rain mn
cm
humidity
%
barometer
mb
20260503200006 30 360 4.8 14.5 0.00 0.00 0.00 9 1010.0
20260503195506 30 360 3.2 19.3 0.00 0.00 0.00 9 1010.4
20260503195036 30 100 4.8 19.3 0.00 0.00 0.00 9 1010.6
20260503194537 30 79 17.7 19.3 0.00 0.00 0.00 9 1010.8
20260503193506 30 65 3.2 19.3 0.00 0.00 0.00 9 1010.9
20260503193006 31 360 9.7 25.7 0.00 0.00 0.00 9 1011.1
20260503192506 30 360 12.9 25.7 0.00 0.00 0.00 9 1011.3
20260503192007 30 360 12.9 19.3 0.00 0.00 0.00 9 1011.4
20260503191506 30 360 4.8 16.1 0.00 0.00 0.00 10 1011.3
20260503191007 29 360 12.9 16.1 0.00 0.00 0.00 9 1011.3
20260503190037 30 360 14.5 16.1 0.00 0.00 0.00 9 1011.5
20260503185536 30 360 14.5 14.5 0.00 0.00 0.00 8 1011.7
20260503184506 29 97 9.7 20.9 0.00 0.00 0.00 9 1011.7
20260503184006 30 360 6.4 20.9 0.00 0.00 0.00 8 1011.9
20260503183507 29 360 8.0 16.1 0.00 0.00 0.00 8 1011.9
20260503183007 29 360 4.8 17.7 0.00 0.00 0.00 7 1011.9
20260503182507 30 113 3.2 24.1 0.00 0.00 0.00 7 1012.2
20260503182006 29 136 11.3 24.1 0.00 0.00 0.00 8 1011.9
20260503181506 28 136 1.6 19.3 0.00 0.00 0.00 7 1012.1
20260503181006 29 138 6.4 19.3 0.00 0.00 0.00 8 1012.2
20260503180007 28 360 8.0 17.7 0.00 0.00 0.00 8 1012.1
20260503175005 28 111 12.9 17.7 0.00 0.00 0.00 8 1012.7
20260503174505 28 360 3.2 16.1 0.00 0.00 0.00 8 1012.8
20260503174006 28 360 11.3 16.1 0.00 0.00 0.00 8 1012.7
20260503173505 28 360 8.0 17.7 0.00 0.00 0.00 8 1012.5
20260503173035 28 122 1.6 17.7 0.00 0.00 0.00 9 1012.7
20260503172536 27 360 4.8 16.1 0.00 0.00 0.00 9 1012.7
20260503172006 27 360 3.2 16.1 0.00 0.00 0.00 9 1012.8
20260503171005 27 115 4.8 14.5 0.00 0.00 0.00 9 1012.5
20260503170505 27 50 9.7 11.3 0.00 0.00 0.00 9 1012.6
20260503151005 21 292 1.6 4.8 0.00 0.00 0.00 14 1013.1
20260503130536 13 304 3.2 11.3 0.00 0.00 0.00 15 1012.1
20260503110505 17 299 1.6 8.0 0.00 0.00 0.00 13 1012.1
20260503090505 17 360 1.6 6.4 0.00 0.00 0.00 13 1012.5
20260503080506 19 360 6.4 9.7 0.00 0.00 0.00 11 1013.3
20260503072535 18 360 3.2 4.8 0.00 0.00 0.00 13 1013.4
20260503072035 19 284 3.2 4.8 0.00 0.00 0.00 13 1013.5
20260503071535 19 283 1.6 4.8 0.00 0.00 0.00 13 1013.5
20260503071005 20 360 3.2 4.8 0.00 0.00 0.00 13 1013.4
20260503070505 20 284 3.2 4.8 0.00 0.00 0.00 13 1013.5
20260503055005 21 360 3.2 9.7 0.00 0.00 0.00 11 1013.2
20260503054035 21 360 9.7 11.3 0.00 0.00 0.00 11 1013.3
20260503053504 21 360 3.2 11.3 0.00 0.00 0.00 11 1013.3
20260503052534 21 360 6.4 12.9 0.00 0.00 0.00 11 1013.2
20260503051034 21 360 4.8 9.7 0.00 0.00 0.00 11 1013.2
20260503050505 21 360 6.4 9.7 0.00 0.00 0.00 11 1013.0
20260503050035 21 360 6.4 9.7 0.00 0.00 0.00 12 1013.2
20260503045535 21 360 3.2 9.7 0.00 0.00 0.00 12 1013.1
20260503045005 21 305 0.0 9.7 0.00 0.00 0.00 11 1013.1
20260503044534 21 360 1.6 11.3 0.00 0.00 0.00 11 1013.0
20260503044005 21 360 4.8 11.3 0.00 0.00 0.00 11 1013.2
20260503043535 21 360 4.8 9.7 0.00 0.00 0.00 9 1013.1
20260503043035 21 360 4.8 8.0 0.00 0.00 0.00 9 1013.1
20260503042505 21 360 1.6 4.8 0.00 0.00 0.00 10 1013.0
20260503042035 22 360 1.6 3.2 0.00 0.00 0.00 12 1013.0
20260503041535 22 110 0.0 3.2 0.00 0.00 0.00 12 1012.9
20260503041035 22 360 0.0 1.6 0.00 0.00 0.00 12 1012.9
20260503040505 22 360 0.0 0.0 0.00 0.00 0.00 11 1012.8
20260503040035 22 360 0.0 0.0 0.00 0.00 0.00 12 1012.8
20260503035035 23 360 0.0 0.0 0.00 0.00 0.00 11 1012.7
20260503034534 23 360 0.0 0.0 0.00 0.00 0.00 11 1012.7
20260503034034 23 360 0.0 0.0 0.00 0.00 0.00 11 1012.6
20260503033535 23 116 0.0 0.0 0.00 0.00 0.00 10 1012.5
20260503033004 23 128 0.0 0.0 0.00 0.00 0.00 11 1012.5
20260503032534 24 360 0.0 0.0 0.00 0.00 0.00 10 1012.5
20260503031505 24 360 0.0 0.0 0.00 0.00 0.00 9 1012.4
20260503031035 25 126 0.0 0.0 0.00 0.00 0.00 9 1012.4
20260503030535 25 360 0.0 0.0 0.00 0.00 0.00 9 1012.3
20260503030034 25 360 0.0 1.6 0.00 0.00 0.00 9 1012.4
20260503025534 25 360 0.0 1.6 0.00 0.00 0.00 8 1011.9
20260503025034 26 127 0.0 0.0 0.00 0.00 0.00 8 1011.8
20260503024504 26 118 0.0 1.6 0.00 0.00 0.00 8 1011.8
20260503024034 26 360 0.0 3.2 0.00 0.00 0.00 7 1011.9
20260503023534 26 360 1.6 4.8 0.00 0.00 0.00 7 1011.8
20260503023004 26 360 1.6 4.8 0.00 0.00 0.00 7 1011.8
20260503022535 26 360 3.2 4.8 0.00 0.00 0.00 6 1011.9
20260503022005 26 360 1.6 4.8 0.00 0.00 0.00 7 1011.8
20260503021505 27 360 1.6 4.8 0.00 0.00 0.00 6 1011.8
20260503021005 27 360 0.0 4.8 0.00 0.00 0.00 6 1012.0
20260503020535 27 360 1.6 4.8 0.00 0.00 0.00 6 1012.0
20260503020005 27 360 1.6 8.0 0.00 0.00 0.00 6 1012.0
20260503014504 27 360 4.8 4.8 0.00 0.00 0.00 6 1011.6
20260503014035 27 360 1.6 6.4 0.00 0.00 0.00 6 1011.7
20260503013035 27 360 4.8 9.7 0.00 0.00 0.00 5 1011.7
20260503012504 27 360 8.0 9.7 0.00 0.00 0.00 6 1011.9
20260503012035 28 360 1.6 9.7 0.00 0.00 0.00 4 1011.8
20260503011535 28 360 4.8 8.0 0.00 0.00 0.00 5 1011.9
20260503010534 28 360 6.4 8.0 0.00 0.00 0.00 5 1011.9
20260503010034 28 360 8.0 11.3 0.00 0.00 0.00 6 1012.0
20260503005534 28 360 1.6 12.9 0.00 0.00 0.00 5 1011.9
20260503004036 28 148 6.4 6.4 0.00 0.00 0.00 5 1012.0
20260503003535 28 360 6.4 8.0 0.00 0.00 0.00 5 1011.9
20260503003004 28 360 1.6 9.7 0.00 0.00 0.00 5 1012.1
20260503002535 28 360 1.6 9.7 0.00 0.00 0.00 5 1012.1
20260503002004 28 360 0.0 12.9 0.00 0.00 0.00 5 1012.2
20260503001535 28 360 0.0 12.9 0.00 0.00 0.00 6 1012.3
20260503001004 28 360 9.7 14.5 0.00 0.00 0.00 5 1012.4
20260503000004 28 360 8.0 11.3 0.00 0.00 0.00 5 1012.5
20260502235534 28 360 0.0 11.3 0.00 0.00 0.00 5 1012.6
20260502235035 28 360 8.0 11.3 0.00 0.00 0.00 5 1012.3
20260502234004 28 151 1.6 14.5 0.00 0.00 0.00 5 1012.7
20260502233005 29 360 0.0 12.9 0.00 0.00 0.00 6 1012.7
20260502232534 28 360 1.6 14.5 0.00 0.00 0.00 6 1012.8
20260502231504 28 360 4.8 16.1 0.00 0.00 0.00 5 1012.8
20260502230035 28 134 8.0 17.7 0.00 0.00 0.00 5 1012.8
20260502225534 29 360 6.4 19.3 0.00 0.00 0.00 5 1013.4
20260502225004 28 360 16.1 19.3 0.00 0.00 0.00 6 1013.3
20260502224505 28 360 6.4 17.7 0.00 0.00 0.00 6 1013.4
20260502223534 28 148 9.7 17.7 0.00 0.00 0.00 5 1013.5
20260502223035 29 121 3.2 17.7 0.00 0.00 0.00 6 1013.9
20260502222534 29 360 4.8 17.7 0.00 0.00 0.00 6 1013.9
20260502221506 29 157 6.4 9.7 0.00 0.00 0.00 6 1014.0
20260502221034 29 108 3.2 12.9 0.00 0.00 0.00 7 1014.3
20260502220534 29 55 4.8 12.9 0.00 0.00 0.00 7 1014.3
20260502220004 28 360 4.8 16.1 0.00 0.00 0.00 7 1014.2
20260502215034 28 360 3.2 16.1 0.00 0.00 0.00 6 1014.3
20260502214504 29 360 6.4 16.1 0.00 0.00 0.00 6 1014.6
20260502214034 29 145 4.8 17.7 0.00 0.00 0.00 6 1014.6
20260502213534 29 50 3.2 17.7 0.00 0.00 0.00 6 1014.6
20260502213034 29 91 0.0 17.7 0.00 0.00 0.00 6 1014.8
20260502212505 29 134 3.2 14.5 0.00 0.00 0.00 6 1014.8
20260502212034 28 360 3.2 17.7 0.00 0.00 0.00 7 1015.1
20260502211504 29 360 3.2 17.7 0.00 0.00 0.00 7 1015.1
20260502211004 28 150 6.4 12.9 0.00 0.00 0.00 8 1015.1
20260502210504 28 360 4.8 16.1 0.00 0.00 0.00 8 1015.2
20260502210004 28 360 4.8 16.1 0.00 0.00 0.00 8 1015.3
20260502205504 28 145 6.4 16.1 0.00 0.00 0.00 7 1015.3
20260502205004 28 360 3.2 14.5 0.00 0.00 0.00 8 1015.3
20260502204004 28 90 14.5 14.5 0.00 0.00 0.00 7 1015.4
20260502203534 29 164 3.2 17.7 0.00 0.00 0.00 6 1015.5
20260502202504 28 360 3.2 22.5 0.00 0.00 0.00 6 1015.8
20260502202004 28 360 4.8 22.5 0.00 0.00 0.00 7 1016.0
20260502201004 28 360 9.7 16.1 0.00 0.00 0.00 8 1016.1
20260502200534 28 360 0.0 16.1 0.00 0.00 0.00 7 1016.3